Time,TemperatureF,DewpointF,PressureIn,WindDirection,WindDirectionDegrees,WindSpeedMPH,WindSpeedGustMPH,Humidity,HourlyPrecipIn,Conditions,Clouds,dailyrainin,SolarRadiationWatts/m^2,SoftwareType,DateUTC
2013-03-02 00:01:00,37.3,31.1,30.40,WNW,299,0.0,1.0,78,0.00,,,0.00,0.0,WUHU216DAVISVP2,2013-03-02 00:01:00,
2013-03-02 00:06:00,37.3,31.1,30.40,WNW,299,0.0,1.0,78,0.00,,,0.00,0.0,WUHU216DAVISVP2,2013-03-02 00:06:00,
2013-03-02 00:11:00,37.3,31.1,30.41,WNW,299,0.0,1.0,78,0.00,,,0.00,0.0,WUHU216DAVISVP2,2013-03-02 00:11:00,
2013-03-02 00:16:00,37.2,31.3,30.41,WNW,294,0.0,1.0,79,0.00,,,0.00,0.0,WUHU216DAVISVP2,2013-03-02 00:16:00,
2013-03-02 00:21:00,37.2,31.3,30.41,NW,323,0.0,2.0,79,0.00,,,0.00,0.0,WUHU216DAVISVP2,2013-03-02 00:21:00,
2013-03-02 00:26:00,37.2,31.3,30.41,NW,323,0.0,2.0,79,0.00,,,0.00,0.0,WUHU216DAVISVP2,2013-03-02 00:26:00,
2013-03-02 00:31:00,37.1,31.2,30.40,NW,320,0.0,2.0,79,0.00,,,0.00,0.0,WUHU216DAVISVP2,2013-03-02 00:31:00,
2013-03-02 00:36:00,37.1,31.2,30.40,SSE,157,0.0,2.0,79,0.00,,,0.00,0.0,WUHU216DAVISVP2,2013-03-02 00:36:00,
2013-03-02 00:41:00,37.1,30.6,30.41,WNW,283,0.0,2.0,77,0.00,,,0.00,0.0,WUHU216DAVISVP2,2013-03-02 00:41:00,
2013-03-02 00:46:00,37.0,30.5,30.40,NNW,335,0.0,2.0,77,0.00,,,0.00,0.0,WUHU216DAVISVP2,2013-03-02 00:46:00,
2013-03-02 00:51:00,37.0,30.5,30.41,WNW,300,0.0,4.0,77,0.00,,,0.00,0.0,WUHU216DAVISVP2,2013-03-02 00:51:00,
2013-03-02 00:56:00,37.0,30.5,30.41,NE,38,1.0,4.0,77,0.00,,,0.00,0.0,WUHU216DAVISVP2,2013-03-02 00:56:00,
2013-03-02 01:01:00,36.9,30.4,30.41,NE,37,0.0,4.0,77,0.00,,,0.00,0.0,WUHU216DAVISVP2,2013-03-02 01:01:00,
2013-03-02 01:06:00,36.9,30.4,30.41,NW,310,0.0,4.0,77,0.00,,,0.00,0.0,WUHU216DAVISVP2,2013-03-02 01:06:00,
2013-03-02 01:11:00,36.9,30.4,30.40,NW,311,0.0,4.0,77,0.00,,,0.00,0.0,WUHU216DAVISVP2,2013-03-02 01:11:00,
2013-03-02 01:16:00,36.9,30.4,30.40,NW,311,0.0,4.0,77,0.00,,,0.00,0.0,WUHU216DAVISVP2,2013-03-02 01:16:00,
2013-03-02 01:21:00,36.8,30.6,30.40,NW,311,0.0,4.0,78,0.00,,,0.00,0.0,WUHU216DAVISVP2,2013-03-02 01:21:00,
2013-03-02 01:26:00,36.8,30.6,30.40,NW,311,0.0,1.0,78,0.00,,,0.00,0.0,WUHU216DAVISVP2,2013-03-02 01:26:00,
2013-03-02 01:31:00,36.8,30.6,30.40,NW,311,0.0,1.0,78,0.00,,,0.00,0.0,WUHU216DAVISVP2,2013-03-02 01:31:00,
2013-03-02 01:36:00,36.8,30.9,30.40,NW,311,0.0,0.0,79,0.00,,,0.00,0.0,WUHU216DAVISVP2,2013-03-02 01:36:00,
2013-03-02 01:41:00,36.7,30.8,30.40,NW,311,0.0,0.0,79,0.00,,,0.00,0.0,WUHU216DAVISVP2,2013-03-02 01:41:00,
2013-03-02 01:46:00,36.7,30.8,30.40,NW,311,0.0,0.0,79,0.00,,,0.00,0.0,WUHU216DAVISVP2,2013-03-02 01:46:00,
2013-03-02 01:51:00,36.7,31.1,30.40,NW,311,0.0,0.0,80,0.00,,,0.00,0.0,WUHU216DAVISVP2,2013-03-02 01:51:00,
2013-03-02 01:56:00,36.6,31.0,30.40,NW,311,0.0,1.0,80,0.00,,,0.00,0.0,WUHU216DAVISVP2,2013-03-02 01:56:00,
2013-03-02 02:01:00,36.6,31.0,30.39,WNW,284,0.0,1.0,80,0.00,,,0.00,0.0,WUHU216DAVISVP2,2013-03-02 02:01:00,
2013-03-02 02:06:00,36.6,30.7,30.39,WNW,297,0.0,1.0,79,0.00,,,0.00,0.0,WUHU216DAVISVP2,2013-03-02 02:06:00,
2013-03-02 02:11:00,36.6,30.7,30.39,SW,217,0.0,1.0,79,0.00,,,0.00,0.0,WUHU216DAVISVP2,2013-03-02 02:11:00,
2013-03-02 02:16:00,36.6,30.7,30.39,SW,217,0.0,1.0,79,0.00,,,0.00,0.0,WUHU216DAVISVP2,2013-03-02 02:16:00,
2013-03-02 02:21:00,36.5,30.6,30.39,SW,217,0.0,1.0,79,0.00,,,0.00,0.0,WUHU216DAVISVP2,2013-03-02 02:21:00,
2013-03-02 02:26:00,36.5,30.6,30.39,WNW,286,0.0,1.0,79,0.00,,,0.00,0.0,WUHU216DAVISVP2,2013-03-02 02:26:00,
2013-03-02 02:31:00,36.5,30.3,30.39,WNW,286,0.0,1.0,78,0.00,,,0.00,0.0,WUHU216DAVISVP2,2013-03-02 02:31:00,
2013-03-02 02:36:00,36.5,30.3,30.39,WNW,290,1.0,1.0,78,0.00,,,0.00,0.0,WUHU216DAVISVP2,2013-03-02 02:36:00,
2013-03-02 02:41:00,36.5,30.6,30.39,ENE,61,0.0,2.0,79,0.00,,,0.00,0.0,WUHU216DAVISVP2,2013-03-02 02:41:00,
2013-03-02 02:46:00,36.5,30.6,30.39,NE,50,0.0,2.0,79,0.00,,,0.00,0.0,WUHU216DAVISVP2,2013-03-02 02:46:00,
2013-03-02 02:51:00,36.4,30.5,30.39,WNW,290,0.0,2.0,79,0.00,,,0.00,0.0,WUHU216DAVISVP2,2013-03-02 02:51:00,
2013-03-02 02:56:00,36.4,30.5,30.39,WNW,286,0.0,2.0,79,0.00,,,0.00,0.0,WUHU216DAVISVP2,2013-03-02 02:56:00,
2013-03-02 03:01:00,36.4,30.5,30.38,WNW,284,0.0,2.0,79,0.00,,,0.00,0.0,WUHU216DAVISVP2,2013-03-02 03:01:00,
2013-03-02 03:06:00,36.4,30.5,30.38,WNW,285,0.0,2.0,79,0.00,,,0.00,0.0,WUHU216DAVISVP2,2013-03-02 03:06:00,
2013-03-02 03:11:00,36.3,30.7,30.38,WNW,285,0.0,2.0,80,0.00,,,0.00,0.0,WUHU216DAVISVP2,2013-03-02 03:11:00,
2013-03-02 03:16:00,36.3,30.7,30.38,WNW,285,0.0,0.0,80,0.00,,,0.00,0.0,WUHU216DAVISVP2,2013-03-02 03:16:00,
2013-03-02 03:21:00,36.3,30.7,30.38,WNW,285,0.0,0.0,80,0.00,,,0.00,0.0,WUHU216DAVISVP2,2013-03-02 03:21:00,
2013-03-02 03:26:00,36.2,30.6,30.38,WNW,285,0.0,0.0,80,0.00,,,0.00,0.0,WUHU216DAVISVP2,2013-03-02 03:26:00,
2013-03-02 03:31:00,36.2,30.6,30.38,WNW,285,0.0,0.0,80,0.00,,,0.00,0.0,WUHU216DAVISVP2,2013-03-02 03:31:00,
2013-03-02 03:36:00,36.2,30.6,30.38,WNW,285,0.0,0.0,80,0.00,,,0.00,0.0,WUHU216DAVISVP2,2013-03-02 03:36:00,
2013-03-02 03:41:00,36.1,30.5,30.38,WNW,285,0.0,1.0,80,0.00,,,0.00,0.0,WUHU216DAVISVP2,2013-03-02 03:41:00,
2013-03-02 03:46:00,36.1,30.5,30.38,WNW,285,0.0,1.0,80,0.00,,,0.00,0.0,WUHU216DAVISVP2,2013-03-02 03:46:00,
2013-03-02 03:51:00,36.1,30.2,30.38,WNW,285,0.0,1.0,79,0.00,,,0.00,0.0,WUHU216DAVISVP2,2013-03-02 03:51:00,
2013-03-02 03:56:00,36.1,30.2,30.38,WNW,285,0.0,1.0,79,0.00,,,0.00,0.0,WUHU216DAVISVP2,2013-03-02 03:56:00,
2013-03-02 04:01:00,36.0,30.1,30.38,WNW,285,0.0,1.0,79,0.00,,,0.00,0.0,WUHU216DAVISVP2,2013-03-02 04:01:00,
2013-03-02 04:06:00,36.0,30.4,30.38,WNW,285,0.0,1.0,80,0.00,,,0.00,0.0,WUHU216DAVISVP2,2013-03-02 04:06:00,
2013-03-02 04:11:00,36.0,30.4,30.38,WNW,285,0.0,0.0,80,0.00,,,0.00,0.0,WUHU216DAVISVP2,2013-03-02 04:11:00,
2013-03-02 04:16:00,36.0,30.4,30.37,WNW,285,0.0,0.0,80,0.00,,,0.00,0.0,WUHU216DAVISVP2,2013-03-02 04:16:00,
2013-03-02 04:21:00,35.9,30.3,30.37,WNW,285,0.0,0.0,80,0.00,,,0.00,0.0,WUHU216DAVISVP2,2013-03-02 04:21:00,
2013-03-02 04:26:00,35.9,30.6,30.37,WNW,285,0.0,0.0,81,0.00,,,0.00,0.0,WUHU216DAVISVP2,2013-03-02 04:26:00,
2013-03-02 04:31:00,35.9,30.6,30.37,West,259,0.0,1.0,81,0.00,,,0.00,0.0,WUHU216DAVISVP2,2013-03-02 04:31:00,
2013-03-02 04:36:00,35.9,30.6,30.37,SSW,207,0.0,1.0,81,0.00,,,0.00,0.0,WUHU216DAVISVP2,2013-03-02 04:36:00,
2013-03-02 04:41:00,35.9,30.6,30.37,SSW,207,0.0,1.0,81,0.00,,,0.00,0.0,WUHU216DAVISVP2,2013-03-02 04:41:00,
2013-03-02 04:46:00,35.8,30.2,30.37,West,273,0.0,1.0,80,0.00,,,0.00,0.0,WUHU216DAVISVP2,2013-03-02 04:46:00,
2013-03-02 04:51:00,35.8,30.2,30.37,West,273,0.0,1.0,80,0.00,,,0.00,0.0,WUHU216DAVISVP2,2013-03-02 04:51:00,
2013-03-02 04:56:00,35.8,29.9,30.37,West,273,0.0,1.0,79,0.00,,,0.00,0.0,WUHU216DAVISVP2,2013-03-02 04:56:00,
2013-03-02 05:00:00,35.8,29.9,30.37,West,273,0.0,1.0,79,0.00,,,0.00,0.0,WUHU216DAVISVP2,2013-03-02 05:00:00,
2013-03-02 05:01:00,35.8,29.9,30.37,West,273,0.0,0.0,79,0.00,,,0.00,0.0,WUHU216DAVISVP2,2013-03-02 05:01:00,
2013-03-02 05:06:00,35.8,30.2,30.37,West,273,0.0,0.0,80,0.00,,,0.00,0.0,WUHU216DAVISVP2,2013-03-02 05:06:00,
2013-03-02 05:11:00,35.7,30.1,30.37,WSW,254,0.0,1.0,80,0.00,,,0.00,0.0,WUHU216DAVISVP2,2013-03-02 05:11:00,
2013-03-02 05:16:00,35.7,30.1,30.37,WSW,254,0.0,1.0,80,0.00,,,0.00,0.0,WUHU216DAVISVP2,2013-03-02 05:16:00,
2013-03-02 05:21:00,35.7,30.1,30.37,WSW,254,0.0,1.0,80,0.00,,,0.00,0.0,WUHU216DAVISVP2,2013-03-02 05:21:00,
2013-03-02 05:26:00,35.7,30.1,30.37,WSW,254,0.0,1.0,80,0.00,,,0.00,0.0,WUHU216DAVISVP2,2013-03-02 05:26:00,
2013-03-02 05:31:00,35.7,30.1,30.37,WSW,254,0.0,0.0,80,0.00,,,0.00,0.0,WUHU216DAVISVP2,2013-03-02 05:31:00,
2013-03-02 05:36:00,35.7,30.4,30.37,WSW,254,0.0,0.0,81,0.00,,,0.00,0.0,WUHU216DAVISVP2,2013-03-02 05:36:00,
2013-03-02 05:41:00,35.6,30.3,30.37,WSW,254,0.0,0.0,81,0.00,,,0.00,0.0,WUHU216DAVISVP2,2013-03-02 05:41:00,
2013-03-02 05:46:00,35.6,30.3,30.36,WSW,254,0.0,1.0,81,0.00,,,0.00,0.0,WUHU216DAVISVP2,2013-03-02 05:46:00,
2013-03-02 05:51:00,35.6,30.3,30.37,WSW,254,0.0,1.0,81,0.00,,,0.00,0.0,WUHU216DAVISVP2,2013-03-02 05:51:00,
2013-03-02 05:56:00,35.6,30.1,30.36,SW,223,0.0,1.0,80,0.00,,,0.00,0.0,WUHU216DAVISVP2,2013-03-02 05:56:00,
2013-03-02 06:01:00,35.6,30.1,30.36,West,278,0.0,1.0,80,0.00,,,0.00,0.0,WUHU216DAVISVP2,2013-03-02 06:01:00,
2013-03-02 06:05:00,35.6,30.3,30.36,West,281,0.0,1.0,81,0.00,,,0.00,0.0,WUHU216DAVISVP2,2013-03-02 06:05:00,
2013-03-02 06:10:00,35.6,30.3,30.37,West,281,0.0,1.0,81,0.00,,,0.00,0.0,WUHU216DAVISVP2,2013-03-02 06:10:00,
2013-03-02 06:15:00,35.6,30.3,30.36,WNW,284,0.0,2.0,81,0.00,,,0.00,0.0,WUHU216DAVISVP2,2013-03-02 06:15:00,
2013-03-02 06:20:00,35.6,30.3,30.36,WNW,284,0.0,2.0,81,0.00,,,0.00,0.0,WUHU216DAVISVP2,2013-03-02 06:20:00,
2013-03-02 06:25:00,35.5,30.2,30.36,WNW,284,0.0,2.0,81,0.00,,,0.00,0.0,WUHU216DAVISVP2,2013-03-02 06:25:00,
2013-03-02 06:30:00,35.5,30.2,30.36,WNW,284,0.0,2.0,81,0.00,,,0.00,0.0,WUHU216DAVISVP2,2013-03-02 06:30:00,
2013-03-02 06:35:00,35.5,30.3,30.36,WNW,284,0.0,1.0,81,0.00,,,0.00,0.0,WUHU216DAVISVP2,2013-03-02 06:35:00,
2013-03-02 06:40:00,35.4,30.1,30.36,WNW,284,0.0,1.0,81,0.00,,,0.00,0.0,WUHU216DAVISVP2,2013-03-02 06:40:00,
2013-03-02 06:45:00,35.4,30.1,30.36,WNW,284,0.0,1.0,81,0.00,,,0.00,0.0,WUHU216DAVISVP2,2013-03-02 06:45:00,
2013-03-02 06:50:00,35.4,30.2,30.36,WNW,284,0.0,2.0,81,0.00,,,0.00,0.0,WUHU216DAVISVP2,2013-03-02 06:50:00,
2013-03-02 06:55:00,35.4,30.4,30.36,WNW,284,0.0,2.0,82,0.00,,,0.00,0.0,WUHU216DAVISVP2,2013-03-02 06:55:00,
2013-03-02 07:00:00,35.3,30.4,30.36,WNW,284,0.0,2.0,82,0.00,,,0.00,0.0,WUHU216DAVISVP2,2013-03-02 07:00:00,
2013-03-02 07:05:00,35.3,30.4,30.36,WNW,284,0.0,1.0,82,0.00,,,0.00,0.0,WUHU216DAVISVP2,2013-03-02 07:05:00,
2013-03-02 07:10:00,35.4,30.4,30.36,WNW,284,0.0,1.0,82,0.00,,,0.00,5.0,WUHU216DAVISVP2,2013-03-02 07:10:00,
2013-03-02 07:15:00,35.3,30.6,30.36,WNW,284,0.0,0.0,83,0.00,,,0.00,7.0,WUHU216DAVISVP2,2013-03-02 07:15:00,
2013-03-02 07:20:00,35.4,30.7,30.36,WNW,284,0.0,0.0,83,0.00,,,0.00,7.0,WUHU216DAVISVP2,2013-03-02 07:20:00,
2013-03-02 07:25:00,35.4,30.7,30.36,WNW,284,0.0,0.0,83,0.00,,,0.00,9.0,WUHU216DAVISVP2,2013-03-02 07:25:00,
2013-03-02 07:31:00,35.4,30.8,30.36,WNW,284,0.0,0.0,83,0.00,,,0.00,11.0,WUHU216DAVISVP2,2013-03-02 07:31:00,
2013-03-02 07:36:00,35.5,31.1,30.36,WNW,284,0.0,0.0,84,0.00,,,0.00,14.0,WUHU216DAVISVP2,2013-03-02 07:36:00,
2013-03-02 07:41:00,35.5,31.1,30.36,WNW,284,0.0,0.0,84,0.00,,,0.00,19.0,WUHU216DAVISVP2,2013-03-02 07:41:00,
2013-03-02 07:46:00,35.5,31.1,30.37,WNW,284,0.0,0.0,84,0.00,,,0.00,28.0,WUHU216DAVISVP2,2013-03-02 07:46:00,
2013-03-02 07:51:00,35.6,30.9,30.36,WNW,284,0.0,0.0,83,0.00,,,0.00,26.0,WUHU216DAVISVP2,2013-03-02 07:51:00,
2013-03-02 07:56:00,35.6,30.6,30.37,WNW,284,0.0,0.0,82,0.00,,,0.00,23.0,WUHU216DAVISVP2,2013-03-02 07:56:00,
2013-03-02 08:01:00,35.7,31.0,30.37,WNW,284,0.0,0.0,83,0.00,,,0.00,23.0,WUHU216DAVISVP2,2013-03-02 08:01:00,
2013-03-02 08:06:00,35.8,31.1,30.37,WNW,284,0.0,0.0,83,0.00,,,0.00,25.0,WUHU216DAVISVP2,2013-03-02 08:06:00,
2013-03-02 08:11:00,35.8,31.1,30.36,WNW,284,0.0,0.0,83,0.00,,,0.00,26.0,WUHU216DAVISVP2,2013-03-02 08:11:00,
2013-03-02 08:16:00,35.9,31.2,30.36,WNW,284,0.0,0.0,83,0.00,,,0.00,33.0,WUHU216DAVISVP2,2013-03-02 08:16:00,
2013-03-02 08:20:00,36.0,31.6,30.36,WNW,284,0.0,0.0,84,0.00,,,0.00,35.0,WUHU216DAVISVP2,2013-03-02 08:20:00,
2013-03-02 08:25:00,36.1,31.7,30.36,WNW,284,0.0,1.0,84,0.00,,,0.00,30.0,WUHU216DAVISVP2,2013-03-02 08:25:00,
2013-03-02 08:30:00,36.1,31.4,30.36,WNW,284,0.0,1.0,83,0.00,,,0.00,30.0,WUHU216DAVISVP2,2013-03-02 08:30:00,
2013-03-02 08:35:00,36.2,31.5,30.36,WNW,284,0.0,1.0,83,0.00,,,0.00,33.0,WUHU216DAVISVP2,2013-03-02 08:35:00,
2013-03-02 08:40:00,36.2,31.8,30.36,WNW,284,0.0,1.0,84,0.00,,,0.00,30.0,WUHU216DAVISVP2,2013-03-02 08:40:00,
2013-03-02 08:46:00,36.3,31.6,30.36,South,179,0.0,1.0,83,0.00,,,0.00,35.0,WUHU216DAVISVP2,2013-03-02 08:46:00,
2013-03-02 08:51:00,36.3,31.3,30.36,WSW,255,0.0,1.0,82,0.00,,,0.00,42.0,WUHU216DAVISVP2,2013-03-02 08:51:00,
2013-03-02 08:56:00,36.3,31.0,30.36,WSW,255,0.0,1.0,81,0.00,,,0.00,53.0,WUHU216DAVISVP2,2013-03-02 08:56:00,
2013-03-02 09:01:00,36.3,31.0,30.36,SE,137,0.0,1.0,81,0.00,,,0.00,58.0,WUHU216DAVISVP2,2013-03-02 09:01:00,
2013-03-02 09:05:00,36.4,30.8,30.36,NW,313,0.0,2.0,80,0.00,,,0.00,56.0,WUHU216DAVISVP2,2013-03-02 09:05:00,
2013-03-02 09:10:00,36.4,30.8,30.36,NW,313,0.0,2.0,80,0.00,,,0.00,58.0,WUHU216DAVISVP2,2013-03-02 09:10:00,
2013-03-02 09:15:00,36.4,30.5,30.36,WNW,298,0.0,4.0,79,0.00,,,0.00,56.0,WUHU216DAVISVP2,2013-03-02 09:15:00,
2013-03-02 09:20:00,36.5,30.6,30.36,WNW,294,0.0,4.0,79,0.00,,,0.00,60.0,WUHU216DAVISVP2,2013-03-02 09:20:00,
2013-03-02 09:25:00,36.5,30.6,30.36,WNW,294,0.0,4.0,79,0.00,,,0.00,60.0,WUHU216DAVISVP2,2013-03-02 09:25:00,
2013-03-02 09:30:00,36.5,30.6,30.36,NW,306,0.0,4.0,79,0.00,,,0.00,63.0,WUHU216DAVISVP2,2013-03-02 09:30:00,
2013-03-02 09:35:00,36.5,30.6,30.36,NW,310,0.0,4.0,79,0.00,,,0.00,65.0,WUHU216DAVISVP2,2013-03-02 09:35:00,
2013-03-02 09:40:00,36.6,30.7,30.36,NW,310,0.0,4.0,79,0.00,,,0.00,62.0,WUHU216DAVISVP2,2013-03-02 09:40:00,
2013-03-02 09:45:00,36.6,31.0,30.36,NW,310,0.0,2.0,80,0.00,,,0.00,62.0,WUHU216DAVISVP2,2013-03-02 09:45:00,
2013-03-02 09:50:00,36.7,31.1,30.36,NW,310,0.0,1.0,80,0.00,,,0.00,70.0,WUHU216DAVISVP2,2013-03-02 09:50:00,
2013-03-02 09:55:00,36.8,31.2,30.36,NW,310,0.0,1.0,80,0.00,,,0.00,76.0,WUHU216DAVISVP2,2013-03-02 09:55:00,
2013-03-02 10:01:00,36.9,31.0,30.36,NW,310,0.0,1.0,79,0.00,,,0.00,74.0,WUHU216DAVISVP2,2013-03-02 10:01:00,
2013-03-02 10:06:00,37.0,31.4,30.36,NW,310,1.0,1.0,80,0.00,,,0.00,74.0,WUHU216DAVISVP2,2013-03-02 10:06:00,
2013-03-02 10:11:00,37.1,31.2,30.36,WNW,296,0.0,1.0,79,0.00,,,0.00,76.0,WUHU216DAVISVP2,2013-03-02 10:11:00,
2013-03-02 10:16:00,37.3,31.4,30.36,WNW,296,0.0,1.0,79,0.00,,,0.00,72.0,WUHU216DAVISVP2,2013-03-02 10:16:00,
2013-03-02 10:21:00,37.4,31.8,30.36,WNW,296,0.0,1.0,80,0.00,,,0.00,76.0,WUHU216DAVISVP2,2013-03-02 10:21:00,
2013-03-02 10:26:00,37.5,31.6,30.36,WNW,296,0.0,1.0,79,0.00,,,0.00,79.0,WUHU216DAVISVP2,2013-03-02 10:26:00,
2013-03-02 10:31:00,37.6,31.7,30.36,WNW,296,0.0,1.0,79,0.00,,,0.00,77.0,WUHU216DAVISVP2,2013-03-02 10:31:00,
2013-03-02 10:37:00,37.7,32.1,30.36,WNW,296,0.0,1.0,80,0.00,,,0.00,76.0,WUHU216DAVISVP2,2013-03-02 10:37:00,
2013-03-02 10:42:00,37.8,31.9,30.36,WNW,296,0.0,1.0,79,0.00,,,0.00,77.0,WUHU216DAVISVP2,2013-03-02 10:42:00,
2013-03-02 10:47:00,37.9,31.7,30.36,WNW,296,0.0,1.0,78,0.00,,,0.00,76.0,WUHU216DAVISVP2,2013-03-02 10:47:00,
2013-03-02 10:52:00,37.8,31.6,30.36,WNW,296,0.0,1.0,78,0.00,,,0.00,79.0,WUHU216DAVISVP2,2013-03-02 10:52:00,
2013-03-02 10:57:00,37.8,31.9,30.36,WNW,301,0.0,2.0,79,0.00,,,0.00,83.0,WUHU216DAVISVP2,2013-03-02 10:57:00,
2013-03-02 11:02:00,37.7,31.8,30.36,WNW,301,0.0,2.0,79,0.00,,,0.00,79.0,WUHU216DAVISVP2,2013-03-02 11:02:00,
2013-03-02 11:07:00,37.8,31.9,30.35,WNW,300,0.0,2.0,79,0.00,,,0.00,79.0,WUHU216DAVISVP2,2013-03-02 11:07:00,
2013-03-02 11:12:00,37.9,32.0,30.35,WNW,300,0.0,2.0,79,0.00,,,0.00,83.0,WUHU216DAVISVP2,2013-03-02 11:12:00,
2013-03-02 11:17:00,38.0,32.4,30.35,WSW,245,0.0,1.0,80,0.00,,,0.00,88.0,WUHU216DAVISVP2,2013-03-02 11:17:00,
2013-03-02 11:22:00,38.1,31.8,30.35,WNW,284,0.0,2.0,78,0.00,,,0.00,105.0,WUHU216DAVISVP2,2013-03-02 11:22:00,
2013-03-02 11:27:00,38.1,31.6,30.35,WNW,284,0.0,2.0,77,0.00,,,0.00,120.0,WUHU216DAVISVP2,2013-03-02 11:27:00,
2013-03-02 11:32:00,38.2,31.7,30.35,WNW,284,0.0,2.0,77,0.00,,,0.00,137.0,WUHU216DAVISVP2,2013-03-02 11:32:00,
2013-03-02 11:37:00,38.3,31.4,30.35,WNW,284,0.0,2.0,76,0.00,,,0.00,121.0,WUHU216DAVISVP2,2013-03-02 11:37:00,
2013-03-02 11:42:00,38.4,31.5,30.35,WNW,294,0.0,2.0,76,0.00,,,0.00,132.0,WUHU216DAVISVP2,2013-03-02 11:42:00,
2013-03-02 11:47:00,38.6,32.1,30.35,WNW,285,0.0,2.0,77,0.00,,,0.00,137.0,WUHU216DAVISVP2,2013-03-02 11:47:00,
2013-03-02 11:52:00,38.8,31.9,30.35,WNW,285,0.0,2.0,76,0.00,,,0.00,128.0,WUHU216DAVISVP2,2013-03-02 11:52:00,
2013-03-02 11:57:00,39.0,32.1,30.35,WNW,285,0.0,1.0,76,0.00,,,0.00,114.0,WUHU216DAVISVP2,2013-03-02 11:57:00,
2013-03-02 12:02:00,39.0,32.1,30.34,WNW,285,0.0,1.0,76,0.00,,,0.00,139.0,WUHU216DAVISVP2,2013-03-02 12:02:00,
2013-03-02 12:07:00,39.0,31.7,30.34,WNW,290,0.0,1.0,75,0.00,,,0.00,162.0,WUHU216DAVISVP2,2013-03-02 12:07:00,
2013-03-02 12:12:00,39.2,32.3,30.34,WNW,290,0.0,1.0,76,0.00,,,0.00,162.0,WUHU216DAVISVP2,2013-03-02 12:12:00,
2013-03-02 12:17:00,39.4,32.2,30.34,WNW,290,0.0,1.0,75,0.00,,,0.00,144.0,WUHU216DAVISVP2,2013-03-02 12:17:00,
2013-03-02 12:22:00,39.5,32.0,30.34,WNW,290,0.0,1.0,74,0.00,,,0.00,128.0,WUHU216DAVISVP2,2013-03-02 12:22:00,
2013-03-02 12:27:00,39.6,32.4,30.34,North,360,0.0,1.0,75,0.00,,,0.00,128.0,WUHU216DAVISVP2,2013-03-02 12:27:00,
2013-03-02 12:32:00,39.8,32.6,30.33,WNW,291,0.0,2.0,75,0.00,,,0.00,134.0,WUHU216DAVISVP2,2013-03-02 12:32:00,
2013-03-02 12:37:00,39.8,31.9,30.33,WNW,294,0.0,2.0,73,0.00,,,0.00,139.0,WUHU216DAVISVP2,2013-03-02 12:37:00,
2013-03-02 12:42:00,39.8,32.2,30.33,WNW,294,0.0,2.0,74,0.00,,,0.00,132.0,WUHU216DAVISVP2,2013-03-02 12:42:00,
2013-03-02 12:47:00,39.9,32.3,30.33,NNW,329,0.0,2.0,74,0.00,,,0.00,134.0,WUHU216DAVISVP2,2013-03-02 12:47:00,
2013-03-02 12:52:00,39.9,32.0,30.33,ENE,69,0.0,2.0,73,0.00,,,0.00,139.0,WUHU216DAVISVP2,2013-03-02 12:52:00,
2013-03-02 12:57:00,39.9,32.0,30.33,North,350,0.0,2.0,73,0.00,,,0.00,130.0,WUHU216DAVISVP2,2013-03-02 12:57:00,
2013-03-02 13:02:00,40.1,32.5,30.33,NNE,14,0.0,2.0,74,0.00,,,0.00,132.0,WUHU216DAVISVP2,2013-03-02 13:02:00,
2013-03-02 13:07:00,40.2,32.6,30.33,NNE,14,0.0,1.0,74,0.00,,,0.00,146.0,WUHU216DAVISVP2,2013-03-02 13:07:00,
2013-03-02 13:12:00,40.2,32.3,30.32,NW,325,0.0,2.0,73,0.00,,,0.00,153.0,WUHU216DAVISVP2,2013-03-02 13:12:00,
2013-03-02 13:17:00,40.3,32.7,30.32,NW,325,0.0,2.0,74,0.00,,,0.00,149.0,WUHU216DAVISVP2,2013-03-02 13:17:00,
2013-03-02 13:22:00,40.4,32.5,30.32,WNW,303,0.0,2.0,73,0.00,,,0.00,123.0,WUHU216DAVISVP2,2013-03-02 13:22:00,
2013-03-02 13:27:00,40.4,32.5,30.32,WNW,303,0.0,2.0,73,0.00,,,0.00,123.0,WUHU216DAVISVP2,2013-03-02 13:27:00,
2013-03-02 13:32:00,40.5,32.9,30.32,WNW,300,0.0,2.0,74,0.00,,,0.00,123.0,WUHU216DAVISVP2,2013-03-02 13:32:00,
2013-03-02 13:37:00,40.6,32.3,30.32,WNW,300,0.0,2.0,72,0.00,,,0.00,142.0,WUHU216DAVISVP2,2013-03-02 13:37:00,
2013-03-02 13:42:00,40.5,32.3,30.32,NW,304,0.0,1.0,72,0.00,,,0.00,144.0,WUHU216DAVISVP2,2013-03-02 13:42:00,
2013-03-02 13:47:00,40.5,32.9,30.32,ESE,122,1.0,1.0,74,0.00,,,0.00,155.0,WUHU216DAVISVP2,2013-03-02 13:47:00,
2013-03-02 13:52:00,40.7,32.8,30.31,SE,128,0.0,2.0,73,0.00,,,0.00,176.0,WUHU216DAVISVP2,2013-03-02 13:52:00,
2013-03-02 13:57:00,40.8,32.9,30.31,South,175,0.0,2.0,73,0.00,,,0.00,160.0,WUHU216DAVISVP2,2013-03-02 13:57:00,
2013-03-02 14:02:00,41.0,32.7,30.31,South,188,0.0,2.0,72,0.00,,,0.00,141.0,WUHU216DAVISVP2,2013-03-02 14:02:00,
2013-03-02 14:07:00,41.2,33.2,30.31,South,188,0.0,1.0,73,0.00,,,0.00,141.0,WUHU216DAVISVP2,2013-03-02 14:07:00,
2013-03-02 14:12:00,41.2,32.9,30.31,SW,233,0.0,1.0,72,0.00,,,0.00,149.0,WUHU216DAVISVP2,2013-03-02 14:12:00,
2013-03-02 14:17:00,41.1,32.8,30.31,SW,231,0.0,2.0,72,0.00,,,0.00,132.0,WUHU216DAVISVP2,2013-03-02 14:17:00,
2013-03-02 14:22:00,41.1,33.1,30.31,SSW,197,0.0,2.0,73,0.00,,,0.00,141.0,WUHU216DAVISVP2,2013-03-02 14:22:00,
2013-03-02 14:27:00,41.3,34.0,30.31,SSE,159,0.0,2.0,75,0.00,,,0.00,144.0,WUHU216DAVISVP2,2013-03-02 14:27:00,
2013-03-02 14:32:00,41.3,33.0,30.31,SSE,159,0.0,1.0,72,0.00,,,0.00,118.0,WUHU216DAVISVP2,2013-03-02 14:32:00,
2013-03-02 14:37:00,41.2,32.9,30.31,SSW,211,0.0,1.0,72,0.00,,,0.00,100.0,WUHU216DAVISVP2,2013-03-02 14:37:00,
2013-03-02 14:42:00,41.2,33.3,30.31,SE,142,0.0,4.0,73,0.00,,,0.00,95.0,WUHU216DAVISVP2,2013-03-02 14:42:00,
2013-03-02 14:47:00,41.1,33.2,30.31,SE,142,0.0,5.0,73,0.00,,,0.00,105.0,WUHU216DAVISVP2,2013-03-02 14:47:00,
2013-03-02 14:52:00,40.9,32.9,30.31,SE,142,0.0,5.0,73,0.00,,,0.00,123.0,WUHU216DAVISVP2,2013-03-02 14:52:00,
2013-03-02 14:57:00,40.9,32.2,30.31,SW,216,0.0,5.0,71,0.00,,,0.00,123.0,WUHU216DAVISVP2,2013-03-02 14:57:00,
2013-03-02 15:02:00,41.0,33.1,30.31,SW,230,0.0,5.0,73,0.00,,,0.00,109.0,WUHU216DAVISVP2,2013-03-02 15:02:00,
2013-03-02 15:07:00,40.9,32.6,30.31,West,261,0.0,2.0,72,0.00,,,0.00,95.0,WUHU216DAVISVP2,2013-03-02 15:07:00,
2013-03-02 15:12:00,41.0,33.0,30.30,West,261,0.0,2.0,73,0.00,,,0.00,79.0,WUHU216DAVISVP2,2013-03-02 15:12:00,
2013-03-02 15:17:00,40.9,32.6,30.30,West,266,0.0,2.0,72,0.00,,,0.00,105.0,WUHU216DAVISVP2,2013-03-02 15:17:00,
2013-03-02 15:22:00,40.7,32.4,30.30,West,266,0.0,2.0,72,0.00,,,0.00,107.0,WUHU216DAVISVP2,2013-03-02 15:22:00,
2013-03-02 15:27:00,40.7,32.8,30.30,SSE,157,0.0,1.0,73,0.00,,,0.00,90.0,WUHU216DAVISVP2,2013-03-02 15:27:00,
2013-03-02 15:32:00,40.7,32.8,30.30,SSE,157,0.0,1.0,73,0.00,,,0.00,86.0,WUHU216DAVISVP2,2013-03-02 15:32:00,
2013-03-02 15:37:00,40.7,32.8,30.30,SSE,157,0.0,1.0,73,0.00,,,0.00,79.0,WUHU216DAVISVP2,2013-03-02 15:37:00,
2013-03-02 15:42:00,40.6,32.3,30.30,South,171,0.0,1.0,72,0.00,,,0.00,90.0,WUHU216DAVISVP2,2013-03-02 15:42:00,
2013-03-02 15:47:00,40.4,31.7,30.30,NW,319,0.0,2.0,71,0.00,,,0.00,100.0,WUHU216DAVISVP2,2013-03-02 15:47:00,
2013-03-02 15:52:00,40.5,32.9,30.30,NW,319,0.0,2.0,74,0.00,,,0.00,86.0,WUHU216DAVISVP2,2013-03-02 15:52:00,
2013-03-02 15:57:00,40.5,32.6,30.29,NW,319,0.0,2.0,73,0.00,,,0.00,83.0,WUHU216DAVISVP2,2013-03-02 15:57:00,
2013-03-02 16:02:00,40.5,32.6,30.29,NW,319,0.0,2.0,73,0.00,,,0.00,88.0,WUHU216DAVISVP2,2013-03-02 16:02:00,
2013-03-02 16:07:00,40.5,32.9,30.29,SSE,157,0.0,4.0,74,0.00,,,0.00,77.0,WUHU216DAVISVP2,2013-03-02 16:07:00,
2013-03-02 16:12:00,40.6,32.7,30.29,SE,145,0.0,4.0,73,0.00,,,0.00,69.0,WUHU216DAVISVP2,2013-03-02 16:12:00,
2013-03-02 16:17:00,40.5,32.3,30.29,SW,231,0.0,4.0,72,0.00,,,0.00,58.0,WUHU216DAVISVP2,2013-03-02 16:17:00,
2013-03-02 16:22:00,40.3,32.3,30.29,SW,231,0.0,4.0,73,0.00,,,0.00,60.0,WUHU216DAVISVP2,2013-03-02 16:22:00,
2013-03-02 16:27:00,40.1,32.2,30.29,SW,231,0.0,1.0,73,0.00,,,0.00,56.0,WUHU216DAVISVP2,2013-03-02 16:27:00,
2013-03-02 16:32:00,40.0,31.8,30.28,WSW,240,0.0,1.0,72,0.00,,,0.00,44.0,WUHU216DAVISVP2,2013-03-02 16:32:00,
2013-03-02 16:37:00,39.9,32.0,30.28,WSW,240,0.0,1.0,73,0.00,,,0.00,39.0,WUHU216DAVISVP2,2013-03-02 16:37:00,
2013-03-02 16:42:00,39.8,32.2,30.28,SW,233,0.0,1.0,74,0.00,,,0.00,37.0,WUHU216DAVISVP2,2013-03-02 16:42:00,
2013-03-02 16:47:00,39.7,32.2,30.28,SSW,192,0.0,1.0,74,0.00,,,0.00,39.0,WUHU216DAVISVP2,2013-03-02 16:47:00,
2013-03-02 16:52:00,39.6,32.1,30.28,SSE,158,0.0,1.0,74,0.00,,,0.00,37.0,WUHU216DAVISVP2,2013-03-02 16:52:00,
2013-03-02 16:57:00,39.4,31.9,30.28,SE,144,0.0,4.0,74,0.00,,,0.00,33.0,WUHU216DAVISVP2,2013-03-02 16:57:00,
2013-03-02 17:02:00,39.2,31.7,30.28,SE,145,0.0,4.0,74,0.00,,,0.00,25.0,WUHU216DAVISVP2,2013-03-02 17:02:00,
2013-03-02 17:07:00,39.1,31.6,30.28,SE,145,0.0,4.0,74,0.00,,,0.00,21.0,WUHU216DAVISVP2,2013-03-02 17:07:00,
2013-03-02 17:12:00,39.0,31.8,30.28,SW,218,0.0,4.0,75,0.00,,,0.00,18.0,WUHU216DAVISVP2,2013-03-02 17:12:00,
2013-03-02 17:17:00,38.9,32.0,30.28,SW,218,0.0,0.0,76,0.00,,,0.00,16.0,WUHU216DAVISVP2,2013-03-02 17:17:00,
2013-03-02 17:22:00,38.7,31.8,30.28,SW,218,0.0,0.0,76,0.00,,,0.00,11.0,WUHU216DAVISVP2,2013-03-02 17:22:00,
2013-03-02 17:27:00,38.6,31.7,30.28,SW,218,0.0,0.0,76,0.00,,,0.00,7.0,WUHU216DAVISVP2,2013-03-02 17:27:00,
2013-03-02 17:32:00,38.5,31.3,30.28,SW,218,0.0,0.0,75,0.00,,,0.00,7.0,WUHU216DAVISVP2,2013-03-02 17:32:00,
2013-03-02 17:37:00,38.3,31.4,30.28,SW,218,0.0,0.0,76,0.00,,,0.00,0.0,WUHU216DAVISVP2,2013-03-02 17:37:00,
2013-03-02 17:42:00,38.2,31.7,30.28,SW,218,0.0,0.0,77,0.00,,,0.00,0.0,WUHU216DAVISVP2,2013-03-02 17:42:00,
2013-03-02 17:47:00,38.1,31.6,30.28,SW,218,0.0,0.0,77,0.00,,,0.00,0.0,WUHU216DAVISVP2,2013-03-02 17:47:00,
2013-03-02 17:53:00,38.0,31.2,30.28,SW,218,0.0,0.0,76,0.00,,,0.00,0.0,WUHU216DAVISVP2,2013-03-02 17:53:00,
2013-03-02 17:58:00,37.8,31.0,30.28,SW,218,0.0,0.0,76,0.00,,,0.00,0.0,WUHU216DAVISVP2,2013-03-02 17:58:00,
2013-03-02 18:03:00,37.7,30.9,30.28,SW,218,0.0,0.0,76,0.00,,,0.00,0.0,WUHU216DAVISVP2,2013-03-02 18:03:00,
2013-03-02 18:08:00,37.5,31.0,30.28,SW,218,0.0,0.0,77,0.00,,,0.00,0.0,WUHU216DAVISVP2,2013-03-02 18:08:00,
2013-03-02 18:13:00,37.3,30.8,30.28,SW,218,0.0,0.0,77,0.00,,,0.00,0.0,WUHU216DAVISVP2,2013-03-02 18:13:00,
2013-03-02 18:18:00,37.0,30.8,30.28,SW,218,0.0,0.0,78,0.00,,,0.00,0.0,WUHU216DAVISVP2,2013-03-02 18:18:00,
2013-03-02 18:23:00,36.7,30.5,30.28,SW,218,0.0,0.0,78,0.00,,,0.00,0.0,WUHU216DAVISVP2,2013-03-02 18:23:00,
2013-03-02 18:28:00,36.4,30.2,30.28,SW,218,0.0,0.0,78,0.00,,,0.00,0.0,WUHU216DAVISVP2,2013-03-02 18:28:00,
2013-03-02 18:33:00,36.1,29.9,30.28,SW,218,0.0,0.0,78,0.00,,,0.00,0.0,WUHU216DAVISVP2,2013-03-02 18:33:00,
2013-03-02 18:38:00,35.8,29.9,30.28,SW,218,0.0,0.0,79,0.00,,,0.00,0.0,WUHU216DAVISVP2,2013-03-02 18:38:00,
2013-03-02 18:43:00,35.4,29.6,30.28,SW,218,0.0,0.0,79,0.00,,,0.00,0.0,WUHU216DAVISVP2,2013-03-02 18:43:00,
2013-03-02 18:48:00,35.0,29.5,30.28,SW,218,0.0,0.0,80,0.00,,,0.00,0.0,WUHU216DAVISVP2,2013-03-02 18:48:00,
2013-03-02 18:53:00,34.6,29.1,30.28,SW,218,0.0,0.0,80,0.00,,,0.00,0.0,WUHU216DAVISVP2,2013-03-02 18:53:00,
2013-03-02 18:58:00,34.3,29.1,30.28,SW,218,0.0,0.0,81,0.00,,,0.00,0.0,WUHU216DAVISVP2,2013-03-02 18:58:00,
2013-03-02 19:03:00,34.0,29.1,30.28,SW,218,0.0,0.0,82,0.00,,,0.00,0.0,WUHU216DAVISVP2,2013-03-02 19:03:00,
2013-03-02 19:08:00,33.6,28.7,30.29,SW,218,0.0,0.0,82,0.00,,,0.00,0.0,WUHU216DAVISVP2,2013-03-02 19:08:00,
2013-03-02 19:13:00,33.3,28.7,30.29,SW,218,0.0,0.0,83,0.00,,,0.00,0.0,WUHU216DAVISVP2,2013-03-02 19:13:00,
2013-03-02 19:18:00,33.0,28.4,30.29,SW,218,0.0,0.0,83,0.00,,,0.00,0.0,WUHU216DAVISVP2,2013-03-02 19:18:00,
2013-03-02 19:23:00,32.7,28.4,30.29,SW,218,0.0,0.0,84,0.00,,,0.00,0.0,WUHU216DAVISVP2,2013-03-02 19:23:00,
2013-03-02 19:28:00,32.4,28.1,30.29,SW,218,0.0,0.0,84,0.00,,,0.00,0.0,WUHU216DAVISVP2,2013-03-02 19:28:00,
2013-03-02 19:33:00,32.1,28.1,30.29,SW,218,0.0,0.0,85,0.00,,,0.00,0.0,WUHU216DAVISVP2,2013-03-02 19:33:00,
2013-03-02 19:38:00,31.9,27.9,30.29,SW,218,0.0,0.0,85,0.00,,,0.00,0.0,WUHU216DAVISVP2,2013-03-02 19:38:00,
2013-03-02 19:43:00,31.6,27.9,30.29,SW,218,0.0,0.0,86,0.00,,,0.00,0.0,WUHU216DAVISVP2,2013-03-02 19:43:00,
2013-03-02 19:48:00,31.4,27.7,30.29,SW,218,0.0,0.0,86,0.00,,,0.00,0.0,WUHU216DAVISVP2,2013-03-02 19:48:00,
2013-03-02 19:53:00,31.2,27.7,30.29,SW,218,0.0,0.0,87,0.00,,,0.00,0.0,WUHU216DAVISVP2,2013-03-02 19:53:00,
2013-03-02 19:58:00,31.0,27.8,30.29,SW,218,0.0,0.0,88,0.00,,,0.00,0.0,WUHU216DAVISVP2,2013-03-02 19:58:00,
2013-03-02 20:03:00,30.8,27.6,30.29,SW,218,0.0,0.0,88,0.00,,,0.00,0.0,WUHU216DAVISVP2,2013-03-02 20:03:00,
2013-03-02 20:08:00,30.6,27.7,30.29,SW,218,0.0,0.0,89,0.00,,,0.00,0.0,WUHU216DAVISVP2,2013-03-02 20:08:00,
2013-03-02 20:13:00,30.5,27.6,30.29,SW,218,0.0,0.0,89,0.00,,,0.00,0.0,WUHU216DAVISVP2,2013-03-02 20:13:00,
2013-03-02 20:18:00,30.4,27.8,30.29,SW,218,0.0,0.0,90,0.00,,,0.00,0.0,WUHU216DAVISVP2,2013-03-02 20:18:00,
2013-03-02 20:23:00,30.3,27.7,30.29,SW,218,0.0,0.0,90,0.00,,,0.00,0.0,WUHU216DAVISVP2,2013-03-02 20:23:00,
2013-03-02 20:28:00,30.1,27.5,30.29,SW,218,0.0,0.0,90,0.00,,,0.00,0.0,WUHU216DAVISVP2,2013-03-02 20:28:00,
2013-03-02 20:33:00,30.0,27.4,30.29,SW,218,0.0,0.0,90,0.00,,,0.00,0.0,WUHU216DAVISVP2,2013-03-02 20:33:00,
2013-03-02 20:38:00,29.8,27.2,30.29,SW,218,0.0,0.0,90,0.00,,,0.00,0.0,WUHU216DAVISVP2,2013-03-02 20:38:00,
2013-03-02 20:43:00,29.7,27.1,30.29,SW,218,0.0,0.0,90,0.00,,,0.00,0.0,WUHU216DAVISVP2,2013-03-02 20:43:00,
2013-03-02 20:48:00,29.6,27.0,30.29,SW,218,0.0,0.0,90,0.00,,,0.00,0.0,WUHU216DAVISVP2,2013-03-02 20:48:00,
2013-03-02 20:53:00,29.4,26.8,30.29,SW,218,0.0,0.0,90,0.00,,,0.00,0.0,WUHU216DAVISVP2,2013-03-02 20:53:00,
2013-03-02 20:58:00,29.3,26.7,30.29,SW,218,0.0,0.0,90,0.00,,,0.00,0.0,WUHU216DAVISVP2,2013-03-02 20:58:00,
2013-03-02 21:03:00,29.2,26.6,30.29,SW,218,0.0,0.0,90,0.00,,,0.00,0.0,WUHU216DAVISVP2,2013-03-02 21:03:00,
2013-03-02 21:08:00,29.1,26.8,30.29,SW,218,0.0,0.0,91,0.00,,,0.00,0.0,WUHU216DAVISVP2,2013-03-02 21:08:00,
2013-03-02 21:13:00,29.0,26.7,30.29,SW,218,0.0,0.0,91,0.00,,,0.00,0.0,WUHU216DAVISVP2,2013-03-02 21:13:00,
2013-03-02 21:18:00,28.9,26.8,30.29,SW,218,0.0,0.0,92,0.00,,,0.00,0.0,WUHU216DAVISVP2,2013-03-02 21:18:00,
2013-03-02 21:23:00,28.8,26.8,30.29,SW,218,0.0,0.0,92,0.00,,,0.00,0.0,WUHU216DAVISVP2,2013-03-02 21:23:00,
2013-03-02 21:28:00,28.8,26.7,30.29,SW,218,0.0,0.0,92,0.00,,,0.00,0.0,WUHU216DAVISVP2,2013-03-02 21:28:00,
2013-03-02 21:33:00,28.7,26.6,30.29,SW,218,0.0,0.0,92,0.00,,,0.00,0.0,WUHU216DAVISVP2,2013-03-02 21:33:00,
2013-03-02 21:38:00,28.6,26.5,30.29,SW,218,0.0,0.0,92,0.00,,,0.00,0.0,WUHU216DAVISVP2,2013-03-02 21:38:00,
2013-03-02 21:43:00,28.5,26.4,30.29,SW,218,0.0,0.0,92,0.00,,,0.00,0.0,WUHU216DAVISVP2,2013-03-02 21:43:00,
2013-03-02 21:48:00,28.5,26.4,30.29,SW,218,0.0,0.0,92,0.00,,,0.00,0.0,WUHU216DAVISVP2,2013-03-02 21:48:00,
2013-03-02 21:53:00,28.3,26.2,30.29,SW,218,0.0,0.0,92,0.00,,,0.00,0.0,WUHU216DAVISVP2,2013-03-02 21:53:00,
2013-03-02 21:58:00,28.3,26.2,30.30,SW,218,0.0,0.0,92,0.00,,,0.00,0.0,WUHU216DAVISVP2,2013-03-02 21:58:00,
2013-03-02 22:03:00,28.2,26.1,30.30,SW,218,0.0,0.0,92,0.00,,,0.00,0.0,WUHU216DAVISVP2,2013-03-02 22:03:00,
2013-03-02 22:08:00,28.2,26.4,30.29,SW,218,0.0,0.0,93,0.00,,,0.00,0.0,WUHU216DAVISVP2,2013-03-02 22:08:00,
2013-03-02 22:13:00,28.2,26.4,30.29,SW,218,0.0,0.0,93,0.00,,,0.00,0.0,WUHU216DAVISVP2,2013-03-02 22:13:00,
2013-03-02 22:18:00,28.1,26.3,30.29,SW,218,0.0,0.0,93,0.00,,,0.00,0.0,WUHU216DAVISVP2,2013-03-02 22:18:00,
2013-03-02 22:23:00,28.0,26.2,30.29,SW,218,0.0,0.0,93,0.00,,,0.00,0.0,WUHU216DAVISVP2,2013-03-02 22:23:00,
2013-03-02 22:28:00,27.9,26.1,30.29,SW,218,0.0,0.0,93,0.00,,,0.00,0.0,WUHU216DAVISVP2,2013-03-02 22:28:00,
2013-03-02 22:33:00,27.8,26.0,30.29,SW,218,0.0,0.0,93,0.00,,,0.00,0.0,WUHU216DAVISVP2,2013-03-02 22:33:00,
2013-03-02 22:38:00,27.7,25.9,30.29,SW,218,0.0,0.0,93,0.00,,,0.00,0.0,WUHU216DAVISVP2,2013-03-02 22:38:00,
2013-03-02 22:43:00,27.6,25.8,30.29,SW,218,0.0,0.0,93,0.00,,,0.00,0.0,WUHU216DAVISVP2,2013-03-02 22:43:00,
2013-03-02 22:48:00,27.5,25.7,30.29,SW,218,0.0,0.0,93,0.00,,,0.00,0.0,WUHU216DAVISVP2,2013-03-02 22:48:00,
2013-03-02 22:53:00,27.4,25.6,30.29,SW,218,0.0,0.0,93,0.00,,,0.00,0.0,WUHU216DAVISVP2,2013-03-02 22:53:00,
2013-03-02 22:58:00,27.3,25.5,30.29,SW,218,0.0,0.0,93,0.00,,,0.00,0.0,WUHU216DAVISVP2,2013-03-02 22:58:00,
2013-03-02 23:03:00,27.3,25.5,30.29,SW,218,0.0,0.0,93,0.00,,,0.00,0.0,WUHU216DAVISVP2,2013-03-02 23:03:00,
2013-03-02 23:08:00,27.1,25.3,30.29,SW,218,0.0,0.0,93,0.00,,,0.00,0.0,WUHU216DAVISVP2,2013-03-02 23:08:00,
2013-03-02 23:13:00,27.1,25.3,30.28,SW,218,0.0,0.0,93,0.00,,,0.00,0.0,WUHU216DAVISVP2,2013-03-02 23:13:00,
2013-03-02 23:18:00,27.0,25.2,30.29,SW,218,0.0,0.0,93,0.00,,,0.00,0.0,WUHU216DAVISVP2,2013-03-02 23:18:00,
2013-03-02 23:23:00,26.9,25.1,30.28,SW,218,0.0,0.0,93,0.00,,,0.00,0.0,WUHU216DAVISVP2,2013-03-02 23:23:00,
2013-03-02 23:28:00,26.8,25.0,30.28,SW,218,0.0,0.0,93,0.00,,,0.00,0.0,WUHU216DAVISVP2,2013-03-02 23:28:00,
2013-03-02 23:33:00,26.8,25.0,30.28,SW,218,0.0,0.0,93,0.00,,,0.00,0.0,WUHU216DAVISVP2,2013-03-02 23:33:00,
2013-03-02 23:38:00,26.8,25.3,30.28,SW,218,0.0,0.0,94,0.00,,,0.00,0.0,WUHU216DAVISVP2,2013-03-02 23:38:00,
2013-03-02 23:43:00,26.8,25.3,30.28,SW,218,0.0,0.0,94,0.00,,,0.00,0.0,WUHU216DAVISVP2,2013-03-02 23:43:00,
2013-03-02 23:48:00,26.8,25.3,30.28,SW,218,0.0,0.0,94,0.00,,,0.00,0.0,WUHU216DAVISVP2,2013-03-02 23:48:00,
2013-03-02 23:53:00,26.7,25.2,30.28,SW,218,0.0,0.0,94,0.00,,,0.00,0.0,WUHU216DAVISVP2,2013-03-02 23:53:00,
2013-03-02 23:58:00,26.7,25.2,30.28,SW,218,0.0,0.0,94,0.00,,,0.00,0.0,WUHU216DAVISVP2,2013-03-02 23:58:00,